Weather History for KPSC - June, 2013

Change the Weather History Date:

Saturday, June 15, 2013

  Actual Average Record
Temperature  
Mean Temperature 67 °F 67 °F  
Max Temperature 90 °F 83 °F 104 °F (1999)
Min Temperature 44 °F 52 °F 42 °F (2008)
Degree Days  
Heating Degree Days 0 1  
Month to date heating degree days 9 23  
Since 1 June heating degree days 9 23  
Since 1 July heating degree days 4716 5013  
Cooling Degree Days 2 3  
Month to date cooling degree days 44 40  
Year to date cooling degree days 90 73  
Since 1 June cooling degree days 44 40  
Growing Degree Days 18 (Base 50)    
Moisture  
Dew Point 44 °F    
Average Humidity 52    
Maximum Humidity 86    
Minimum Humidity 17    
Precipitation  
Precipitation 0.00 in 0.02 in 0.11 in (1998)
Month to date precipitation T 0.42  
Year to date precipitation 1.88 4.67  
Snow  
Snow 0.00 in - - ()
Snow Depth 0.00 in    
Sea Level Pressure  
Sea Level Pressure 29.92 in    
Wind  
Wind Speed 4 mph (NNW)    
Max Wind Speed 14 mph    
Max Gust Speed 17 mph    
Visibility 10 miles    
Events      
T = Trace of Precipitation, MM = Missing Value Source: NWS Daily Summary

Daily Weather History Graph

Daily Weather History Graph

Search for Another Location

Airport or City:

Trip Planner

Search our weather history database for the weather conditions in past years. The results will help you decide how hot, cold, wet, or windy it might be!

Date:

Astronomy

Jun. 15, 2013 Rise Set
Actual Time 5:03 AM PDT 8:50 PM PDT
Civil Twilight 4:25 AM PDT 9:29 PM PDT
Nautical Twilight 3:32 AM PDT 10:21 PM PDT
Astronomical Twilight 2:18 AM PDT 11:36 PM PDT
Moon 12:04 PM PDT (6/15) 12:08 AM PDT (6/15)
Length of Visible Light 17h 04m
Length of Day
15h 46m
Waxing Crescent, 40% of the Moon is Illuminated
Jun 15
Waxing Crescent
Jun 16
First Quarter
Jun 23
Full
Jun 29
Last Quarter
Jul 8
New

Hourly Weather History & Observations

Time (PDT) Temp. Windchill Dew Point Humidity Pressure Visibility Wind Dir Wind Speed Gust Speed Precip Events Conditions
12:53 AM 53.1 °F - 43.0 °F 69% 29.98 in 10.0 mi Calm Calm - N/A   Clear
1:53 AM 48.9 °F - 43.0 °F 80% 29.98 in 10.0 mi Calm Calm - N/A   Clear
2:53 AM 46.9 °F - 43.0 °F 86% 29.98 in 10.0 mi NNW 4.6 mph - N/A   Clear
3:53 AM 46.9 °F - 43.0 °F 86% 29.98 in 10.0 mi NNE 3.5 mph - N/A   Clear
4:53 AM 46.0 °F - 43.0 °F 89% 29.98 in 10.0 mi Calm Calm - N/A   Clear
5:53 AM 46.0 °F 44.8 °F 42.1 °F 86% 29.99 in 10.0 mi NNW 3.5 mph - N/A   Clear
6:53 AM 53.1 °F - 42.1 °F 66% 29.99 in 10.0 mi NNW 5.8 mph - N/A   Clear
7:53 AM 57.9 °F - 44.1 °F 60% 29.98 in 10.0 mi NNW 5.8 mph - N/A   Clear
8:53 AM 62.1 °F - 45.0 °F 53% 29.99 in 10.0 mi WNW 4.6 mph - N/A   Clear
9:53 AM 66.9 °F - 45.0 °F 45% 29.98 in 10.0 mi WNW 3.5 mph - N/A   Clear
10:53 AM 75.0 °F - 46.9 °F 37% 29.96 in 10.0 mi Variable 5.8 mph - N/A   Clear
11:53 AM 78.1 °F - 46.0 °F 32% 29.94 in 10.0 mi North 8.1 mph - N/A   Clear
12:53 PM 82.0 °F - 44.1 °F 26% 29.92 in 10.0 mi North 10.4 mph - N/A   Clear
1:53 PM 84.0 °F - 45.0 °F 25% 29.90 in 10.0 mi North 8.1 mph - N/A   Clear
2:53 PM 86.0 °F - 43.0 °F 22% 29.88 in 10.0 mi NNW 8.1 mph - N/A   Clear
3:53 PM 88.0 °F - 41.0 °F 19% 29.86 in 10.0 mi North 9.2 mph - N/A   Clear
4:53 PM 89.1 °F - 39.9 °F 18% 29.84 in 10.0 mi North 12.7 mph - N/A   Clear
5:53 PM 88.0 °F - 39.9 °F 18% 29.84 in 10.0 mi North 11.5 mph - N/A   Clear
6:53 PM 82.9 °F - 48.9 °F 31% 29.84 in 10.0 mi NNW 10.4 mph - N/A   Clear
7:53 PM 77.0 °F - 50.0 °F 39% 29.84 in 10.0 mi NNW 10.4 mph - N/A   Clear
8:53 PM 71.1 °F - 50.0 °F 47% 29.86 in 10.0 mi NNW 8.1 mph - N/A   Clear
9:53 PM 66.0 °F - 48.0 °F 52% 29.87 in 10.0 mi NNW 5.8 mph - N/A   Clear
10:53 PM 64.0 °F - 46.0 °F 52% 29.89 in 10.0 mi WNW 5.8 mph - N/A   Clear
11:53 PM 64.0 °F - 46.0 °F 52% 29.90 in 10.0 mi WNW 3.5 mph - N/A   Clear